STARLINK-36819

Last updated on Fri Mar 27 2026 00:02:06 GMT+0000 (Coordinated Universal Time)

1 67967U 26038G 26085.02872803 .00056461 00000+0 10317-2 0 9990 2 67967 97.2848 95.7581 0001099 96.8784 263.2592 15.49207413 5731
UTC large
Height (km)
Speed (km/s)
/
Latitude / Longitude
Inclination (degrees)
Orbital Period (minutes)
Azimuth
Elevation
Range (km)
Doppler Factor

Next 0 passes for location: London (51.5072 / 0.1276)

Sorry there are no passes over London.